Regional Weather Roundup
Issued by NWS

Home | Current Version | Previous Version | Graphics & Text | Print | Product List | Glossary On
Versions: 1 2 3 4 5 6 7 8 9 10 11 12 13 14 15 16 17 18 19 20 21 22 23 24 25 26 27 28 29 30 31 32 33 34 35 36 37 38 39 40 41 42 43 44 45 46 47 48 49 50
000
ASUS43 KFSD 221710
RWRSD

WEATHER ROUNDUP FOR SOUTH DAKOTA
NATIONAL WEATHER SERVICE SIOUX FALLS SD
1200 PM CDT TUE JUL 22 2014

NOTE: "FAIR" INDICATES FEW OR NO CLOUDS BELOW 12,000 FEET WITH NO
SIGNIFICANT WEATHER AND/OR OBSTRUCTIONS TO VISIBILITY.


SDZ001>005-009-010-012>017-221800-
NORTHWEST AND NORTH CENTRAL SOUTH DAKOTA

CITY           SKY/WX    TMP DP  RH WIND       PRES   REMARKS
BUFFALO          N/A     80  57  45 S7        30.17R
FAITH            N/A     76  62  62 NE10      30.20S
MOBRIDGE       SUNNY     75  62  64 VRB7      30.17R
$$

SDZ012>016-024>037-041>051-057-063-072>074-221800-
SOUTHWEST AND SOUTH CENTRAL SOUTH DAKOTA

CITY           SKY/WX    TMP DP  RH WIND       PRES   REMARKS
RAPID CTY ARPT SUNNY     81  62  52 CALM      30.23R
PIERRE         SUNNY     77  63  61 NE9       30.15R
CUSTER         SUNNY     77  55  46 VRB3      30.36R
ELLSWORTH AFB  SUNNY     80  60  51 VRB2      30.23R
PHILIP         SUNNY     82  63  52 N6        30.18R
PINE RIDGE     SUNNY     80  60  50 N6        30.23R
WINNER         FAIR      78  64  61 N10       30.17R
$$

SDZ004>011-016>023-039-040-221800-
NORTHEAST SOUTH DAKOTA

CITY           SKY/WX    TMP DP  RH WIND       PRES   REMARKS
ABERDEEN       MOSUNNY   75  59  57 NE15      30.15R
WATERTOWN      MOSUNNY   76  57  51 N16       30.13R
SISSETON         N/A     77  60  55 N15       30.11R
$$

SDZ017-020-022-023-036>040-048>070-221800-
SOUTHEAST SOUTH DAKOTA

CITY           SKY/WX    TMP DP  RH WIND       PRES   REMARKS
SIOUX FALLS    PTSUNNY   79  67  66 N10       30.11R
HURON          PTSUNNY   77  62  59 N14       30.12S
CHAMBERLAIN    MOSUNNY   76  64  66 NE8G16    30.14S
MITCHELL       PTSUNNY   77  67  71 N15       30.11F
YANKTON        PTSUNNY   79  66  65 N13G21    30.07F
$$

ABBREVIATIONS USED IN REMARKS
   TC - TEMPERATURE IN CELSIUS
  WCI - WIND CHILL INDEX
   HX - HEAT INDEX
  VSB - VISIBILITY



USA.gov is the U.S. government's official web portal to all federal, state and local government web resources and services.